IRIDIUM 67 [-] (25290 NORAD) Tracking and Keplerian Element Data

This shows tracking and keplerian element data for the satellite.

Feedback or suggestion? Click here.




ElementValue
Catalog25290
NameIRIDIUM 67 [-]
Epoch Orbit5981
Epoch Day183.41372486
Epoch Year2018
RAAN62.792
Inclination86.3716
Eccentricity0.0043479
Argument of Perigee96.5457
Mean Anonmoly264.0806
Mean Motion16.45411698
Decay Rate0.16129305
L11 25290U 98021F 18183.41372486 .16129305 -15944-5 18798-3 0 9996
L22 25290 86.3716 62.7920 0043479 96.5457 264.0806 16.45411698 59814

Live tracking and technical data element details for IRIDIUM 67 [-] (NORAD 25290). IRIDIUM 67 [-] can be tracked NOW for your location showing map with azimuth and elevation plus other details from your city location.

Track the satellite on the map from your city or location and see movement details for azimuth, elevation, latitude, longitude, range, height, and movement on the map or in text.







IsCatalogInMostPopularTable: catalog: 25290, numindb: 30
Update: records affected: 1



GetName: 25290 IRIDIUM 67 [-]

Hit Count: updated at: Fri, 20 Jul 2018 06:53:57 GMT